Simultaneous Nadir Overpasses (SNOs) Predictions

Prediction of SNOs between GOES-16 and METOP-B Satellite Orbit:

Table of predicted SNOs for the next 14.0 days since TLE Epoch: 12/31/2016
Index Date Time (GOES-16) GOES-16 Lat,Lon METOP-B Lat,Lon Distance(km) Time Diff (sec)
1 01/01/2017 03:30:52 -0.02, -89.43 -0.15, -90.10 76.07 80
2 01/02/2017 03:12:51 -0.02, -89.43 0.93, -85.10 493.66 80
3 01/03/2017 15:29:03 0.03, -89.45 0.06, -89.66 23.99 80
4 01/06/2017 03:30:01 -0.03, -89.44 -0.02, -89.24 21.96 80
5 01/07/2017 15:46:13 0.03, -89.46 1.02, -93.81 495.77 80
6 01/08/2017 15:28:13 0.03, -89.46 -0.12, -88.81 73.99 80
7 01/10/2017 03:44:33 -0.03, -89.46 -0.90, -93.41 450.06 80
8 01/11/2017 03:26:32 -0.03, -89.46 0.18, -88.40 119.98 80
9 01/12/2017 15:42:43 0.03, -89.48 0.83, -92.96 397.04 80
10 01/13/2017 15:24:44 0.04, -89.49 -0.31, -87.97 173.30 80




NCC Satellite Simultaneous Nadir Overpasses (SNOs) Prediction Service
